Zurück zum Katalog

COSMOS 981

AktivMilitärLEO
NORAD 10588·PAYLOAD·🇷🇺 Russia

Gestartet Jan 10, 1978 von Plesetsk Cosmodrome

Loading…

Nächste Überflüge (nächste 24 Stunden)

TLE

AktuellSource: Space-Track

Epoche: Sep 14, 2026, 06:20 UTC

1 10588U 78005F   26257.26421906 -.00000008  00000-0  55011-4 0  9999
2 10588  74.0348   8.2811 0020427   1.9755  21.7416 12.46468123211486

Verfolge COSMOS 981 in Echtzeit mit AllMySat

Download on the App Store